Flag for American Samoa Weather past 2 weeks in Pago Pago, American Samoa

Now
80 °F

Partly cloudy.


Feels Like: 85 °F
Forecast: 80 / 85 °F
Wind: No wind

Location: Pago Pago / Int. Airp.

Current Time: Oct 1, 2014 at 9:39:15 PM

Latest Report: Oct 1, 2014 at 8:55 PM


Visibility: 10 mi

Pressure: 29.86 "Hg

Humidity: 86%

Dew point: 75 °F

Location of Pago PagoLocation

Historic Weather in Pago Pago — Graph

°F

Pago Pago temperature yesterday

Maximum temperature yesterday: 88 °F (at 11:53 AM)
Minimum temperature yesterday: 80 °F (at 5:53 AM)
Average temperature yesterday: 83 °F

Past Weeks' High & Low Weather Summary

 TemperatureHumidityPressure
High89 °F (Sep 20, 12:50 PM)97% (Sep 17, 7:50 AM)29.98 "Hg (Sep 17, 7:50 AM)
Low75 °F (Sep 18, 4:55 PM)66% (Sep 21, 2:58 PM)29.80 "Hg (Oct 1, 2:52 PM)
Average82 °F84%29.89 "Hg
* Reported Sep 16 7:54 PM — Oct 1 7:53 PM, Pago Pago, Weather by CustomWeather, © 2014

Note: Actual official high and low records may vary slightly from our data, if they occured in-between our weather recording intervals... More about our weather records

Advertising

Pago Pago weather history for previous 24 hours

 ConditionsComfort  
Time TempWeatherWind HumidityBarometerVisibility
7:53 PM
Oct 1
80 °FPartly cloudy.9 mph85%29.86 "Hg10 mi
6:52 PM82 °FPartly cloudy.14 mph84%29.84 "Hg10 mi
5:52 PM82 °FBroken clouds.15 mph80%29.83 "Hg10 mi
4:53 PM83 °FBroken clouds.14 mph78%29.81 "Hg10 mi
3:51 PM83 °FBroken clouds.15 mph80%29.80 "Hg11 mi
2:52 PM83 °FBroken clouds.16 mph72%29.80 "Hg11 mi
1:55 PM85 °FBroken clouds.16 mph80%29.81 "Hg11 mi
12:56 PM86 °FLight rain. Cloudy.17 mph79%29.83 "Hg11 mi
11:51 AM83 °FBroken clouds.9 mph88%29.85 "Hg11 mi
8:50 AM86 °FBroken clouds.16 mph77%29.90 "Hg12 mi
7:54 AM84 °FScattered clouds.16 mph80%29.88 "Hg12 mi
6:50 AM82 °FScattered clouds.16 mph83%29.86 "Hg12 mi
5:52 AM81 °FPassing clouds.12 mph84%29.85 "Hg11 mi
4:58 AM81 °FPassing clouds.9 mph84%29.83 "Hg10 mi
3:52 AM81 °FPassing clouds.12 mph84%29.82 "Hg10 mi
2:50 AM81 °FPassing clouds.13 mph84%29.82 "Hg10 mi
1:58 AM81 °FPassing clouds.12 mph83%29.82 "Hg10 mi
12:50 AM81 °FPassing clouds.12 mph84%29.84 "Hg10 mi
11:50 PM
Sep 30
81 °FPassing clouds.14 mph82%29.85 "Hg10 mi
10:54 PM81 °FPassing clouds.15 mph82%29.86 "Hg10 mi
9:57 PM81 °FPassing clouds.15 mph84%29.87 "Hg10 mi
Weather by CustomWeather, © 2014

See weather overviewHow to use our weather pages